Location: Dobieszowice
(50.3966°N, 19.0070°E)
Time: 07:34:02
(UTC+00:00)

Daily predictions for brighter satellites

Satellite Brightness Start Highest point End
(mag) Time Altitude Azimuth Time Altitude Azimuth Time Altitude Azimuth
Radarsat Rocket 4.1 15:17:14 10° SE 15:23:09 65° ENE 15:29:47 10° NNW
CZ-4B DEB 4.2 15:18:28 10° SSE 15:23:57 76° ENE 15:29:26 10° NNW
PSLV R/B 3.9 15:20:23 10° SSE 15:24:30 76° ENE 15:28:36 10° N
Sich 1 4.2 15:22:37 10° NNE 15:26:11 23° ENE 15:29:42 10° ESE
Cosmos 2333 Rocket 2.2 15:21:06 10° SSW 15:26:46 77° ESE 15:32:28 10° NNE
Nadezhda 1 Rocket 4.5 15:22:16 10° SSE 15:28:09 42° E 15:34:06 10° NNE
EP 1 4.5 15:26:41 10° SW 15:29:35 72° NW 15:32:11 10° NE
SJ-7 4.3 15:25:58 10° SSE 15:29:57 84° ENE 15:33:58 10° NNW
Cosmos 2315 Rocket 4.5 15:23:52 10° SSW 15:30:03 67° WNW 15:36:21 10° N
Cosmos 1606 4.4 15:28:00 10° ESE 15:30:16 15° E 15:32:34 10° NE
Cosmos 1125 Rocket 3.7 15:26:22 10° NNW 15:31:25 48° ENE 15:36:27 10° SE
Cosmos 1842 Rocket 3.6 15:27:48 10° S 15:32:04 61° E 15:36:21 10° NNE
COSMOS 2428 2.8 15:26:36 10° SSW 15:32:17 68° ESE 15:37:59 10° NNE
Meteor 1-27 4.4 15:26:45 10° SSW 15:32:22 83° WNW 15:38:07 10° N
Okean O Rocket 1.9 15:28:23 10° SE 15:32:30 42° ENE 15:36:39 10° N
Cosmos 2208 Rocket 4.1 15:31:05 10° S 15:36:18 67° ESE 15:41:38 10° NNE
Cosmos 2278 Rocket 2.2 15:31:15 10° NNW 15:36:58 76° ENE 15:42:39 10° SE
Cosmos 1805 Rocket 4.1 15:32:58 10° N 15:37:07 36° ENE 15:41:15 10° SE
ISS -2.0 15:35:10 10° SSW 15:37:49 22° SE 15:40:28 10° E
MOS 1-B 4.4 15:32:06 10° SSE 15:37:54 89° ENE 15:43:46 10° NNW
Cosmos 2154 Rocket 4.1 15:32:27 10° N 15:38:44 60° ENE 15:45:00 10° SSE
Cosmos 482 Debris 2.8 15:39:22 10° WNW 15:41:09 44° N 15:42:26 15° ENE
USA 267 3.4 15:36:29 10° E 15:42:55 64° NNE 15:49:24 10° WNW
CZ-4B R/B 2.9 15:44:07 12° ENE 15:45:39 16° E 15:47:41 10° SE
Cosmos 540 Rocket 3.6 15:42:17 10° SSW 15:47:25 76° WNW 15:52:35 10° NNE
Cosmos 2341 Rocket 4.4 15:41:34 10° N 15:47:26 40° ENE 15:53:20 10° SE
Aureole 2 Rocket 4.2 15:45:06 10° NW 15:47:32 29° WSW 15:50:03 10° S
Cosmos 724 4.4 15:41:55 10° SSW 15:47:46 73° SE 15:53:50 10° NE
Cosmos 1862 3.2 15:44:46 10° N 15:48:50 73° ENE 15:52:50 10° SSE
Cosmos 2360 Rocket 3.4 15:44:45 10° WSW 15:49:59 38° NW 15:55:15 10° NNE
NOSS 0 Rocket 4.2 15:44:14 10° S 15:50:14 51° ESE 15:56:16 10° NE
SL-24 R/B - RUBIN 2 4.4 15:45:31 10° NW 15:52:00 89° NE 15:57:46 10° SE
Cosmos 2084 Rocket 4.4 15:49:51 10° WSW 15:53:44 38° NW 15:57:45 10° NE
NOAA 12 4.1 15:50:06 10° SSE 15:55:25 76° ENE 16:00:46 10° NNW
ERS-2 3.3 15:55:10 13° NE 15:57:37 23° E 16:00:37 10° SSE
Cosmos 2219 Rocket 2.4 15:52:23 10° SW 15:58:01 73° WNW 16:03:42 10° NNE
Landsat 5 3.6 15:55:00 10° NNE 15:59:22 89° WNW 16:03:50 10° SSW
Cosmos 841 Rocket 3.9 15:54:21 10° SW 15:59:32 64° WNW 16:04:44 10° NNE
CZ-2D R/B 4.3 15:58:35 10° ESE 16:01:38 23° ENE 16:04:43 10° NNE
Cosmos 2285 Rocket 4.5 15:55:57 10° NNW 16:01:55 38° NE 16:07:48 10° ESE
CZ-4B R/B 3.2 15:57:46 10° SSE 16:03:07 88° WSW 16:08:28 10° NNW
Envisat 3.6 15:58:13 10° S 16:03:14 61° W 16:08:17 10° NNW
H-2A R/B 1.9 15:59:30 10° NNE 16:03:40 78° ESE 16:07:52 10° SSW
CZ-4 R/B 2.7 16:02:21 14° E 16:04:18 19° ENE 16:07:11 10° NNE
Cosmos 1980 Rocket 4.5 16:02:59 10° NW 16:04:38 11° NNW 16:06:17 10° N
Cosmos 2327 Rocket 4.5 15:58:48 10° N 16:04:57 89° ENE 16:11:11 10° S
SMAP 3.1 16:00:33 10° SSE 16:05:12 87° WSW 16:09:55 10° NNW
SL-16 R/B 4.2 16:02:02 10° W 16:06:08 20° NW 16:10:16 10° N
Cosmos 2237 Rocket 2.4 16:02:02 10° S 16:07:27 52° ESE 16:12:36 12° NE
NOAA 11 4.1 16:04:37 10° SSE 16:09:59 69° ENE 16:15:25 10° N
FengYun 1-2 T 4.2 16:06:10 10° SSE 16:11:42 75° ENE 16:17:14 10° NNW
SL-8 Rocket 4.2 16:06:00 10° N 16:11:57 46° ENE 16:17:56 10° SE
GENESIS II 4.3 16:08:11 10° NW 16:12:11 79° SW 16:16:04 10° SE
Cosmos 1633 Rocket 3.6 16:10:04 10° N 16:14:07 35° ENE 16:18:07 10° SE
CREW DRAGON DEMO-1 DEB 2.7 16:11:24 10° WNW 16:14:24 88° SSW 16:16:01 24° ESE
H-2A R/B 3.1 16:11:48 12° ESE 16:15:24 24° ENE 16:19:27 10° N
Cosmos 1939 Rocket 3.0 16:12:55 10° SE 16:16:36 44° ENE 16:20:19 10° N
USA 281 3.4 16:11:08 10° SE 16:17:25 51° NE 16:23:45 10° NNW
Cosmos 2369 Rocket 3.2 16:13:31 10° NNW 16:18:14 25° NE 16:20:20 21° ENE
CORIOLIS 4.3 16:15:25 10° SSE 16:20:49 78° WSW 16:26:18 10° NNW
Cosmos 2181 Rocket 4.4 16:15:09 10° SSE 16:21:06 41° E 16:27:00 10° NNE
Meteor 2-12 Rocket 4.4 16:15:37 10° N 16:21:49 75° E 16:27:56 10° SSE
CSL-04 DEB 4.4 16:20:52 10° NNE 16:24:57 89° WNW 16:29:07 10° SSW
Cosmos 1980 3.7 16:19:55 10° SSW 16:25:34 74° ESE 16:30:35 14° NNE
Cosmos 2221 3.8 16:25:04 10° SW 16:29:11 40° WNW 16:33:17 10° N
ADEOS Rocket 4.4 16:34:45 10° N 16:41:59 51° WNW 16:49:25 10° SW
Cosmos 2297 3.6 16:38:24 10° NNW 16:44:06 72° ENE 16:49:48 10° SE
Cosmos 836 Rocket 4.4 16:39:36 10° SSW 16:44:53 80° ESE 16:48:59 17° NNE
YAOGAN 1 2.8 16:44:14 29° ESE 16:45:54 42° ENE 16:50:01 10° N
Cosmos 1943 Rocket 2.3 16:42:05 10° NNW 16:47:28 49° NE 16:50:06 28° ESE
Cosmos 389 Rocket 2.3 16:44:28 10° SSW 16:47:54 89° W 16:49:22 32° N
Cosmos 1470 Rocket 3.7 16:45:21 10° N 16:49:32 44° ENE 16:50:03 42° E
Cosmos 44 3.4 16:45:37 10° NW 16:50:53 73° NE 16:54:10 24° SE
USA 215 3.3 16:47:51 28° ENE 16:51:31 66° SE 16:58:01 10° SW
Cosmos 1933 3.2 16:48:28 10° S 16:52:27 63° E 16:53:49 38° NNE
BREEZE-M DEB (TANK) 2.6 16:51:27 10° WSW 16:53:03 46° SW 16:53:03 46° SW
COSMO-SKYMED 1 2.5 16:52:06 25° NNE 16:54:34 68° ESE 16:58:53 10° S
Cosmos 2322 Rocket 4.5 16:51:39 10° WNW 16:54:39 14° NNW 16:57:39 10° N
SL-16 R/B 2.4 16:49:56 10° S 16:55:18 46° ESE 16:56:52 37° ENE
Cosmos 1867 3.7 16:50:24 10° SSW 16:55:39 53° ESE 16:57:16 39° ENE
CZ-2C R/B 2.9 16:51:05 10° SSE 16:56:08 62° ENE 17:00:59 10° N
CZ-4 R/B 4.3 16:52:25 10° SSE 16:56:34 84° ENE 17:00:44 10° NNW
ARGOS 3.6 16:57:00 37° ENE 16:57:00 37° ENE 17:01:54 10° N
Okean-O 2.5 16:53:00 10° SSE 16:57:22 65° ENE 17:01:47 10° N
Cosmos 2218 Rocket 3.8 16:51:36 10° N 16:57:48 79° E 17:03:57 10° SSE
PSLV R/B 4.0 17:00:30 51° ESE 17:00:30 51° ESE 17:04:06 10° S
Meteor 1-26 Rocket 4.4 16:54:43 10° S 17:00:32 54° E 17:05:33 14° NNE
Sich 1 4.2 16:59:53 10° NNW 17:04:05 43° W 17:08:12 10° SSW
Cosmos 1606 3.4 17:01:44 10° SSW 17:05:33 53° WNW 17:08:40 15° N
Cosmos 2366 rocket 3.9 17:02:38 10° N 17:08:54 89° E 17:15:04 10° S
Okean O Rocket 4.0 17:05:28 10° SSW 17:09:01 24° W 17:12:38 10° NW
DEBRIS 4.0 16:54:24 10° W 17:09:36 83° S 17:11:14 45° ESE
Helios 1A Rocket 2.7 17:07:31 22° SSE 17:10:04 85° ENE 17:14:07 10° NNW
Cosmos 2333 Rocket 4.0 17:06:56 10° W 17:11:40 26° NW 17:16:12 11° NNE
ISS -3.0 17:10:54 10° WSW 17:13:33 51° SW 17:13:33 51° SW
SAR-Lupe-4 3.7 17:15:58 71° WSW 17:15:58 71° WSW 17:19:22 10° SSW
COSMOS 2428 4.4 17:12:05 10° WSW 17:17:04 29° NW 17:21:31 12° NNE
CZ-4B R/B 3.0 17:17:16 27° NW 17:17:59 30° WNW 17:20:45 10° SW
Cosmos 1151 Rocket 3.0 17:18:27 10° SSW 17:22:45 79° W 17:23:24 62° N
USA 267 3.6 17:21:44 23° SE 17:25:59 63° SW 17:32:31 10° WNW
Cosmos 1328 Rocket 3.5 17:24:21 10° SSW 17:28:37 78° W 17:28:37 78° W
Lacrosse 5 rocket 3.4 17:27:15 10° SSW 17:28:08 16° SSW 17:28:08 16° SSW
ERS-2 3.8 17:29:46 23° NNW 17:31:13 32° WNW 17:34:30 10° SW
EO 1 Delta rocket 4.3 17:27:51 10° N 17:32:58 78° WNW 17:39:17 10° SSW
SL-24 R/B 4.4 17:32:45 56° NW 17:33:06 59° WNW 17:36:53 10° SSW
CSL-04 Debris 4.1 17:36:09 39° SSE 17:38:20 90° ENE 17:43:53 10° NNW
Meteor 1-5 Rocket 4.4 17:32:38 10° N 17:37:43 57° NNE 17:37:43 57° NNE
CZ-4 R/B 2.2 17:38:22 43° SW 17:39:00 48° W 17:42:54 10° NNW
Cosmos 2219 Rocket 4.3 17:38:56 10° W 17:43:00 20° NW 17:46:25 12° N
Cosmos 2237 Rocket 3.5 17:46:38 10° WSW 17:51:45 35° NW 17:54:26 23° N
H-2A R/B 2.4 17:52:26 38° S 17:54:26 66° WSW 17:59:38 10° NNW
Cosmos 773 Rocket 4.4 17:55:00 10° SSW 17:59:15 57° SW 17:59:15 57° SW
USA 281 4.3 17:55:54 10° S 18:02:03 42° WSW 18:08:14 10° NW
CSL-04 Rocket 3.9 18:01:44 61° SW 18:02:12 64° WSW 18:07:31 10° NNW
Cosmos 2369 Rocket 2.4 17:57:13 10° NNW 18:02:10 66° NW 18:02:10 66° NW
MOS 1 Rocket 3.9 18:03:47 63° WNW 18:04:01 64° WNW 18:09:23 10° SSW
Cosmos 1821 Rocket 4.1 18:05:06 10° NNW 18:11:18 74° W 18:11:29 73° WSW
Cosmos 1943 Rocket 3.6 18:26:08 10° NW 18:31:03 33° WSW 18:31:41 32° WSW
USA 215 3.6 18:35:13 60° NW 18:35:13 60° NW 18:40:59 10° W
SL-16 R/B 3.5 18:34:17 10° WSW 18:38:47 36° WNW 18:38:47 36° WNW
